User: anonymous   Login
Location: Newark
(19.5361°N, 155.5761°W)
Time: 19:36:08
(UTC+00:00)
Language:

Gurwin Techsat 1B - Orbit

View from above orbital plane
View from above orbital plane
View from above satellite
View from above satellite

Ground track
Ground track

The orbit data is extracted from the following two-line orbital elements,

1 25397U 98043D   20101.13309518 -.00000009  00000-0  15319-4 0  9997
2 25397  98.7229  43.1714 0000244 213.6275 146.4888 14.23682443130056
Epoch (UTC): 10 April 2020 03:11:39
Eccentricity: 0.0000244
inclination: 98.7229°
perigee height: 813 km
apogee height: 813 km
right ascension of ascending node: 43.1714°
argument of perigee: 213.6275°
revolutions per day: 14.23682443
mean anomaly at epoch: 146.4888°
orbit number at epoch: 13005

The dashed part of the orbit path shows where the satellite is in the earth's shadow,  

DLR